TimeHST,TemperatureF,Dew PointF,Humidity,Sea Level PressureIn,VisibilityMPH,Wind Direction,Wind SpeedMPH,Gust SpeedMPH,PrecipitationIn,Events,Conditions,WindDirDegrees,DateUTC
12:56 AM,68.9,65.8,90,30.01,10.0,ENE,9.2,-,N/A,,Clear,70,2013-09-25 10:56:00
1:56 AM,70.0,65.8,87,29.99,10.0,ENE,6.9,-,N/A,,Scattered Clouds,70,2013-09-25 11:56:00
2:56 AM,70.0,65.8,87,29.99,10.0,ENE,6.9,-,N/A,,Clear,70,2013-09-25 12:56:00
3:56 AM,70.0,65.8,87,30.04,10.0,ENE,10.4,-,N/A,,Clear,60,2013-09-25 13:56:00
4:56 AM,68.0,63.9,87,30.00,10.0,Calm,Calm,-,N/A,,Clear,0,2013-09-25 14:56:00
5:56 AM,68.0,64.9,90,30.00,10.0,NNE,6.9,-,N/A,,Partly Cloudy,30,2013-09-25 15:56:00
6:56 AM,68.0,64.9,90,30.01,10.0,East,6.9,-,N/A,,Clear,80,2013-09-25 16:56:00
7:56 AM,74.8,65.8,73,30.03,10.0,NNE,10.4,-,N/A,,Clear,30,2013-09-25 17:56:00
8:56 AM,79.9,65.8,62,30.04,10.0,NNE,6.9,-,N/A,,Clear,30,2013-09-25 18:56:00
9:32 AM,77.0,66.2,69,30.11,9.0,NNE,9.2,-,N/A,,Overcast,20,2013-09-25 19:32:00
9:45 AM,78.8,66.2,65,30.11,9.0,NE,9.2,-,N/A,,Overcast,50,2013-09-25 19:45:00
9:56 AM,81.0,65.8,60,30.04,-9999.0,NE,8.1,-,N/A,,Mostly Cloudy,40,2013-09-25 19:56:00
10:56 AM,73.4,66.2,78,30.11,10.0,ESE,10.4,-,N/A,Rain,Heavy Rain,120,2013-09-25 20:56:00
11:56 AM,77.9,66.9,69,30.02,10.0,Variable,5.8,-,0.08,,Overcast,0,2013-09-25 21:56:00
12:27 PM,77.0,66.2,69,30.08,10.0,Variable,3.5,-,0.00,Rain,Light Rain,0,2013-09-25 22:27:00
12:36 PM,73.4,68.0,83,30.07,1.8,North,17.3,21.9,0.08,Rain,Heavy Rain,10,2013-09-25 22:36:00
12:46 PM,71.6,68.0,88,30.08,1.0,Variable,4.6,-,0.45,Rain,Heavy Rain,0,2013-09-25 22:46:00
12:56 PM,70.9,68.0,91,30.02,5.0,WSW,6.9,-,0.49,Rain,Rain,250,2013-09-25 22:56:00
1:20 PM,71.6,69.8,94,30.06,1.8,Calm,Calm,-,0.12,Rain,Heavy Rain,0,2013-09-25 23:20:00
1:27 PM,71.6,69.8,94,30.06,3.0,SW,4.6,-,0.18,Rain,Heavy Rain,220,2013-09-25 23:27:00
1:56 PM,71.6,69.8,94,30.05,8.0,Calm,Calm,-,N/A,Rain,Light Rain,0,2013-09-25 23:56:00
2:13 PM,73.4,69.8,88,30.04,10.0,Variable,3.5,-,0.00,Rain,Light Rain,0,2013-09-26 00:13:00
2:34 PM,77.0,69.8,78,30.03,10.0,NE,15.0,-,0.00,,Mostly Cloudy,40,2013-09-26 00:34:00
2:44 PM,77.0,68.0,74,30.02,10.0,NE,15.0,-,0.00,,Mostly Cloudy,40,2013-09-26 00:44:00
2:56 PM,79.0,68.0,69,29.96,10.0,NE,16.1,-,0.01,,Overcast,50,2013-09-26 00:56:00
3:28 PM,78.8,69.8,74,30.02,10.0,SSE,9.2,-,N/A,,Mostly Cloudy,160,2013-09-26 01:28:00
3:56 PM,72.0,68.9,90,29.98,4.0,ESE,6.9,-,0.08,Rain,Heavy Rain,110,2013-09-26 01:56:00
4:29 PM,71.6,69.8,94,30.03,9.0,Calm,Calm,-,0.16,Rain,Light Rain,0,2013-09-26 02:29:00
4:56 PM,72.9,68.0,85,29.97,10.0,Calm,Calm,-,0.16,,Clear,0,2013-09-26 02:56:00
5:56 PM,73.9,66.9,79,29.98,10.0,NE,16.1,-,0.01,,Clear,50,2013-09-26 03:56:00
6:56 PM,72.0,65.8,81,30.00,10.0,East,9.2,-,N/A,,Mostly Cloudy,90,2013-09-26 04:56:00
7:56 PM,70.9,66.9,87,30.00,10.0,East,4.6,-,N/A,,Clear,100,2013-09-26 05:56:00
8:56 PM,68.9,65.8,90,30.00,10.0,East,6.9,-,N/A,,Clear,80,2013-09-26 06:56:00
9:56 PM,68.9,65.8,90,30.01,10.0,East,4.6,-,N/A,,Clear,90,2013-09-26 07:56:00
10:56 PM,69.8,66.2,88,30.06,10.0,ENE,9.2,-,N/A,,Mostly Cloudy,60,2013-09-26 08:56:00
11:56 PM,68.9,65.8,90,29.99,10.0,ENE,3.5,-,N/A,,Overcast,60,2013-09-26 09:56:00